Външен сензор Measurements

Back to Overview

Timestamp Temperature Humidity
3/31/2020 10:37:44 AM 7,2 C 69.7%
3/31/2020 10:34:13 AM 7,4 C 66.5%
3/31/2020 10:29:10 AM 8,1 C 67.5%
3/31/2020 10:25:25 AM 8,5 C 64.2%
3/31/2020 10:21:37 AM 8,1 C 67.6%
3/31/2020 10:20:37 AM 8,0 C 64.4%
3/31/2020 10:15:35 AM 7,6 C 67.6%
3/31/2020 10:13:19 AM 7,3 C 70.8%
3/31/2020 10:08:02 AM 6,6 C 72.9%
3/31/2020 10:01:01 AM 6,3 C 73.8%
3/31/2020 9:57:59 AM 5,7 C 76.9%
3/31/2020 9:54:43 AM 5,0 C 77.5%
3/31/2020 9:47:40 AM 4,5 C 79.7%
3/31/2020 9:40:39 AM 4,5 C 80.6%
3/31/2020 9:33:36 AM 4,6 C 80.7%
3/31/2020 9:26:35 AM 4,5 C 80.9%
3/31/2020 9:19:33 AM 4,2 C 80.5%
3/31/2020 9:12:30 AM 3,8 C 82.7%
3/31/2020 9:05:28 AM 3,3 C 86.1%
3/31/2020 8:58:26 AM 2,7 C 88.2%
3/31/2020 8:51:24 AM 2,0 C 90.0%
3/31/2020 8:44:23 AM 1,4 C 91.0%
3/31/2020 8:37:21 AM 0,9 C 91.4%
3/31/2020 8:30:19 AM 0,6 C 91.4%
3/31/2020 8:23:17 AM 0,5 C 91.4%
3/31/2020 8:16:15 AM 0,4 C 91.3%
3/31/2020 8:09:13 AM 0,4 C 91.4%
3/31/2020 8:02:11 AM 0,3 C 91.5%
3/31/2020 7:55:07 AM 0,2 C 91.6%
3/31/2020 7:48:07 AM 0,1 C 91.7%
3/31/2020 7:41:06 AM 0,0 C 91.7%
3/31/2020 7:34:04 AM -0,1 C 91.8%
3/31/2020 7:27:02 AM -0,2 C 91.8%
3/31/2020 7:20:01 AM -0,3 C 91.6%
3/31/2020 7:12:58 AM -0,3 C 91.5%
3/31/2020 7:05:57 AM -0,3 C 91.5%
3/31/2020 6:58:55 AM -0,3 C 91.4%
3/31/2020 6:51:53 AM -0,2 C 91.4%
3/31/2020 6:44:51 AM -0,2 C 91.2%
3/31/2020 6:37:49 AM -0,2 C 91.1%
3/31/2020 6:30:48 AM 0,0 C 91.0%
3/31/2020 6:23:47 AM 0,0 C 90.8%
3/31/2020 6:16:44 AM 0,1 C 90.5%
3/31/2020 6:09:42 AM 0,3 C 90.3%
3/31/2020 6:02:40 AM 0,5 C 90.2%
3/31/2020 5:55:38 AM 0,6 C 90.2%
3/31/2020 5:48:37 AM 0,7 C 90.2%
3/31/2020 5:41:34 AM 0,7 C 90.2%
3/31/2020 5:34:33 AM 0,8 C 90.0%
3/31/2020 5:27:31 AM 1,0 C 89.6%
3/31/2020 5:20:28 AM 1,2 C 89.5%
3/31/2020 5:13:26 AM 1,4 C 89.5%
3/31/2020 5:06:25 AM 1,3 C 89.6%
3/31/2020 4:59:23 AM 1,3 C 89.3%
3/31/2020 4:52:21 AM 1,5 C 88.9%
3/31/2020 4:45:19 AM 1,4 C 89.1%
3/31/2020 4:38:18 AM 1,2 C 89.3%
3/31/2020 4:31:16 AM 1,1 C 89.4%
3/31/2020 4:24:14 AM 1,1 C 89.5%
3/31/2020 4:17:13 AM 1,1 C 89.6%
3/31/2020 4:10:11 AM 1,1 C 89.5%
3/31/2020 4:03:09 AM 1,0 C 89.4%
3/31/2020 3:56:07 AM 1,0 C 89.4%
3/31/2020 3:49:05 AM 0,9 C 89.3%
3/31/2020 3:42:04 AM 1,1 C 88.8%
3/31/2020 3:35:02 AM 1,2 C 89.0%
3/31/2020 3:28:00 AM 1,1 C 89.0%
3/31/2020 3:20:59 AM 1,1 C 88.7%
3/31/2020 3:13:57 AM 1,2 C 88.5%
3/31/2020 3:06:55 AM 1,2 C 88.5%
3/31/2020 2:59:52 AM 1,1 C 88.7%
3/31/2020 2:52:51 AM 1,1 C 88.7%
3/31/2020 2:45:48 AM 1,1 C 88.6%
3/31/2020 2:38:46 AM 1,0 C 88.8%
3/31/2020 2:31:45 AM 0,9 C 88.8%
3/31/2020 2:24:42 AM 0,9 C 88.8%
3/31/2020 2:17:41 AM 0,9 C 88.8%
3/31/2020 2:10:39 AM 0,9 C 88.7%
3/31/2020 2:03:37 AM 1,1 C 88.4%
3/31/2020 1:56:35 AM 1,4 C 88.2%
3/31/2020 1:49:33 AM 1,6 C 88.1%
3/31/2020 1:42:32 AM 1,7 C 88.0%
3/31/2020 1:35:30 AM 1,9 C 87.9%
3/31/2020 1:28:28 AM 1,9 C 88.0%
3/31/2020 1:21:27 AM 1,8 C 88.2%
3/31/2020 1:14:25 AM 1,7 C 88.2%
3/31/2020 1:07:24 AM 1,8 C 87.9%
3/31/2020 1:00:22 AM 1,8 C 88.0%
3/31/2020 12:53:21 AM 1,8 C 87.7%
3/31/2020 12:46:18 AM 1,7 C 87.6%
3/31/2020 12:39:17 AM 1,7 C 87.5%
3/31/2020 12:32:16 AM 1,7 C 87.2%
3/31/2020 12:25:14 AM 1,8 C 87.0%
3/31/2020 12:18:12 AM 1,9 C 87.0%
3/31/2020 12:11:11 AM 2,0 C 87.5%
3/31/2020 12:04:08 AM 1,7 C 87.5%